Juneau, AK

10:45 PM AKDT on May 28, 2017 (GMT -0800)
Juneau International

Weather History for PAJN - August, 2014

Change the Weather History Date:

Friday, August 22, 2014

  Actual Average Record
Temperature  
Mean Temperature 58 °F 55 °F  
Max Temperature 70 °F 62 °F 79 °F (1979)
Min Temperature 45 °F 48 °F 38 °F (1954)
Degree Days  
Heating Degree Days 7 10  
Month to date heating degree days 151 186  
Since 1 June heating degree days 731 752  
Since 1 July heating degree days 381 437  
Cooling Degree Days 0 0  
Month to date cooling degree days 0 0  
Year to date cooling degree days 0 2  
Since 1 June cooling degree days 0 2  
Growing Degree Days 8 (Base 50)    
Moisture  
Dew Point 50 °F    
Average Humidity 77    
Maximum Humidity 100    
Minimum Humidity 53    
Precipitation  
Precipitation T in 0.20 in 1.24 in (1962)
Month to date precipitation 6.69 3.77  
Year to date precipitation 42.26 31.21  
Sea Level Pressure  
Sea Level Pressure 30.18 in    
Wind  
Wind Speed 3 mph (WSW)    
Max Wind Speed 10 mph    
Max Gust Speed 12 mph    
Visibility 10 miles    
Events      
T = Trace of Precipitation, MM = Missing Value Source: NWS Daily Summary

Daily Weather History Graph

Daily Weather History Graph

Search for Another Location

Airport or City:

Trip Planner

Search our weather history database for the weather conditions in past years. The results will help you decide how hot, cold, wet, or windy it might be!

Date:

Astronomy

Aug. 22, 2014 Rise Set
Actual Time 5:35 AM AKDT 8:24 PM AKDT
Civil Twilight 4:50 AM AKDT 9:09 PM AKDT
Nautical Twilight 3:50 AM AKDT 10:09 PM AKDT
Astronomical Twilight 2:22 AM AKDT 11:34 PM AKDT
Moon 2:48 AM AKDT (8/22) 6:48 PM AKDT (8/22)
Length of Visible Light 16h 18m
Length of Day
14h 48m
Waning Crescent, 7% of the Moon is Illuminated
Aug 22
Waning Crescent
Aug 25
New
Sep 2
First Quarter
Sep 8
Full
Sep 15
Last Quarter

Hourly Weather History & Observations

Time (AKDT) Temp. Dew Point Humidity Pressure Visibility Wind Dir Wind Speed Gust Speed Precip Events Conditions
12:53 AM 51.1 °F 48.9 °F 92% 30.19 in 10.0 mi Calm Calm - N/A   Clear
1:53 AM 48.9 °F 48.0 °F 97% 30.20 in 10.0 mi East 3.5 mph - N/A   Clear
2:53 AM 50.0 °F 46.9 °F 89% 30.20 in 10.0 mi Calm Calm - N/A   Clear
3:53 AM 46.4 °F 46.4 °F 100% 30.20 in 10.0 mi Calm Calm - N/A   Partly Cloudy
4:42 AM 46.9 °F 46.0 °F 97% 30.21 in 10.0 mi Calm Calm - N/A   Scattered Clouds
4:53 AM 46.9 °F 46.0 °F 97% 30.21 in 10.0 mi East 3.5 mph - N/A   Scattered Clouds
5:53 AM 48.9 °F 46.9 °F 93% 30.21 in 10.0 mi Calm Calm - N/A   Mostly Cloudy
6:53 AM 48.2 °F 46.4 °F 93% 30.21 in 10.0 mi Calm Calm - N/A   Mostly Cloudy
7:53 AM 52.0 °F 50.0 °F 93% 30.21 in 10.0 mi Calm Calm - N/A   Mostly Cloudy
8:53 AM 55.4 °F 51.8 °F 88% 30.21 in 10.0 mi Calm Calm - N/A   Mostly Cloudy
9:00 AM 55.0 °F 52.0 °F 89% 30.21 in 10.0 mi Calm Calm - N/A   Mostly Cloudy
9:53 AM 60.1 °F 51.1 °F 72% 30.20 in 10.0 mi Calm Calm - N/A   Mostly Cloudy
10:53 AM 60.1 °F 48.9 °F 67% 30.19 in 10.0 mi WSW 6.9 mph - N/A   Mostly Cloudy
11:53 AM 62.1 °F 51.1 °F 67% 30.20 in 10.0 mi WSW 6.9 mph - N/A   Overcast
12:53 PM 64.9 °F 51.1 °F 61% 30.19 in 10.0 mi WSW 4.6 mph - N/A   Overcast
1:53 PM 64.9 °F 51.1 °F 61% 30.19 in 10.0 mi WSW 8.1 mph - N/A   Mostly Cloudy
2:53 PM 66.9 °F 51.1 °F 57% 30.18 in 10.0 mi WSW 8.1 mph - N/A   Overcast
3:53 PM 69.1 °F 51.1 °F 53% 30.17 in 10.0 mi SW 8.1 mph - N/A   Overcast
4:53 PM 66.9 °F 51.1 °F 57% 30.16 in 10.0 mi WSW 9.2 mph - N/A   Overcast
5:53 PM 66.9 °F 52.0 °F 59% 30.15 in 10.0 mi WNW 5.8 mph - N/A   Overcast
6:53 PM 64.0 °F 55.0 °F 73% 30.15 in 10.0 mi Calm Calm - N/A   Overcast
7:53 PM 61.0 °F 51.1 °F 70% 30.15 in 10.0 mi West 3.5 mph - N/A   Overcast
8:53 PM 60.1 °F 51.1 °F 72% 30.13 in 10.0 mi Calm Calm - N/A   Overcast
9:53 PM 59.0 °F 46.9 °F 64% 30.14 in 10.0 mi NW 6.9 mph - N/A   Overcast
10:53 PM 57.9 °F 50.0 °F 75% 30.15 in 10.0 mi Calm Calm - N/A   Overcast
11:53 PM 55.9 °F 52.0 °F 87% 30.15 in 10.0 mi Calm Calm - 0.00 in   Overcast